Location: Finkenbach
(49.5340°N, 8.9188°E)
Time: 14:56:38
(UTC+00:00)

Cosmos 2292 Rocket - Pass Details

Date: 17 June 2025
Orbit: 370 x 1262 km, 83.0° (Epoch: 20 July)

Event Time Altitude Azimuth Distance (km) Brightness Sun altitude
Exits shadow 21:14:12 19° 128° (SE) 985 4.1 -11.4°
Maximum altitude 21:15:24 24° 91° (E) 817 3.9 -11.5°
Drops below altitude 10° 21:17:53 10° 34° (NNE) 1,404 5.8 -11.7°
Sets 21:20:07 0° 20° (NNE) 2,312 7.2 -11.9°
